This demonstration page uses our WeatherBlox Daily Observations layout. Learn more.

Left ArrowRight Arrow

34.02893, -84.19858

Hourly Observations for July 22, 2021

Temp ( °F °C ) Dew Point ( °F °C ) Humidity (%) Winds ( mph kmh ) Pressure ( in mb ) Visibility ( mi km ) Precip ( " mm )
12:53 am 00:53 Partly Cloudy 73 22.8 72 22.2 96 96 Calm 30.05 1018 10 16 0.00 0.00
1:53 am 01:53 Mostly Cloudy 73 22.8 71 21.7 94 94 Calm 30.05 1018 10 16 0.00 0.00
2:53 am 02:53 Cloudy 73 22.8 72 22.2 96 96 Calm 30.05 1018 10 16 0.00 0.00
3:53 am 03:53 Cloudy 73 22.8 71 21.7 94 94 W 3 6 30.05 1018 10 16 0.00 0.00
4:53 am 04:53 Clear 73 22.8 71 21.7 94 94 Calm 30.04 1017 10 16 0.00 0.00
5:53 am 05:53 Clear 72 22.2 70 21.1 94 94 WNW 3 6 30.05 1018 10 16 0.00 0.00
6:53 am 06:53 Sunny 71 21.7 70 21.1 96 96 Calm 30.07 1018 10 16 0.00 0.00
7:53 am 07:53 Sunny 73 22.8 71 21.7 94 94 Calm 30.09 1019 10 16 0.00 0.00
8:18 am 08:18 Mostly Sunny 74 23.3 71 21.7 91 91 W 3 6 30.10 1019 10 16 0.00 0.00
8:53 am 08:53 Mostly Sunny 75 23.9 72 22.2 90 90 W 3 6 30.10 1019 10 16 0.00 0.00
9:53 am 09:53 Sunny 78 25.6 72 22.2 82 82 NW 3 6 30.11 1020 10 16 0.00 0.00
10:53 am 10:53 Sunny 81 27.2 71 21.7 72 72 Calm 30.11 1020 10 16 0.00 0.00
11:53 am 11:53 Sunny 84 28.9 70 21.1 63 63 W 6 9 30.11 1020 9 14 0.00 0.00
12:53 pm 12:53 Mostly Cloudy 86 30 71 21.7 61 61 WNW 7 11 30.10 1019 10 16 0.00 0.00
1:53 pm 13:53 Mostly Cloudy 85 29.4 70 21.1 61 61 W 5 7 30.09 1019 10 16 0.00 0.00
2:53 pm 14:53 Partly Cloudy 88 31.1 72 22.2 59 59 VRB 6 9 30.06 1018 9 14 0.00 0.00
3:53 pm 15:53 Partly Cloudy 89 31.7 71 21.7 55 55 NW 5 7 30.05 1018 9 14 0.00 0.00
4:53 pm 16:53 Partly Cloudy 89 31.7 71 21.7 55 55 WNW 8 13 30.04 1017 10 16 0.00 0.00
5:53 pm 17:53 Mostly Sunny 87 30.6 71 21.7 59 59 NW 7 11 30.04 1017 8 13 0.00 0.00
6:53 pm 18:53 Sunny 87 30.6 70 21.1 57 57 NNW 8 13 30.04 1017 8 13 0.00 0.00
7:53 pm 19:53 Sunny 84 28.9 69 20.6 61 61 NNW 6 9 30.06 1018 7 11 0.00 0.00
8:53 pm 20:53 Hazy 81 27.2 69 20.6 67 67 NNW 5 7 30.07 1018 6 10 0.00 0.00
9:53 pm 21:53 Clear 78 25.6 70 21.1 76 76 W 5 7 30.08 1019 7 11 0.00 0.00
10:53 pm 22:53 Clear with Mist and Fog 75 23.9 71 21.7 88 88 Calm 30.10 1019 6 10 0.00 0.00
11:53 pm 23:53 Clear with Mist and Fog 74 23.3 71 21.7 91 91 Calm 30.09 1019 5 8 0.00 0.00

Powered by AerisWeather